Flag for Austria Weather past 2 weeks in Murau, Styria, Austria

Now
54 °F

Broken clouds.


Feels Like: 54 °F
Forecast: 34 / 48 °F
Wind: 2 mph from North

Location: Zeltweg

Current Time: Mar 29, 2015 at 3:18:25 PM

Latest Report: Mar 29, 2015 at 1:50 PM


Visibility: 31 mi

Pressure: 29.80 "Hg

Humidity: 51%

Dew point: 36 °F

Location of MurauLocation

Historic Weather in Murau — Graph

°F

Murau temperature yesterday

Maximum temperature yesterday: 48 °F (at 12:50 PM)
Minimum temperature yesterday: 32 °F (at 9:50 PM)
Average temperature yesterday: 43 °F

Past Weeks' High & Low Weather Summary

 TemperatureHumidityPressure
High61 °F (Mar 21, 2:50 PM)100% (Mar 16, 5:50 AM)30.45 "Hg (Mar 16, 5:50 AM)
Low23 °F (Mar 20, 4:50 AM)23% (Mar 19, 4:50 PM)29.68 "Hg (Mar 25, 3:50 PM)
Average44 °F64%30.07 "Hg
* Reported Mar 14 12:20 PM — Mar 29 1:50 PM, Murau, Weather by CustomWeather, © 2015

Note: Actual official high and low records may vary slightly from our data, if they occured in-between our weather recording intervals... More about our weather records

Advertising

Murau weather history for previous 24 hours

 ConditionsComfort  
Time TempWeatherWind HumidityBarometerVisibility
1:50 PM
Sun, Mar 29
54 °FBroken clouds.2 mph51%29.80 "Hg31 mi
12:50 PM48 °FPartly sunny.1 mph58%29.83 "Hg25 mi
11:50 AM48 °FBroken clouds.2 mph58%29.83 "Hg25 mi
10:50 AM41 °FBroken clouds.2 mph66%29.86 "Hg25 mi
9:50 AM37 °FScattered clouds.2 mph75%29.92 "Hg16 mi
8:50 AM34 °FPassing clouds.2 mph87%29.92 "Hg12 mi
7:50 AM32 °FPartly sunny.1 mph80%29.92 "Hg12 mi
6:50 AM32 °FPartly cloudy.1 mph87%29.92 "Hg12 mi
5:50 AM32 °FPartly cloudy.3 mph87%29.92 "Hg9 mi
9:50 PM
Sat, Mar 28
32 °FClear.1 mph75%30.01 "Hg12 mi
8:50 PM36 °FClear.3 mph70%30.01 "Hg12 mi
7:50 PM36 °FClear.3 mph65%30.01 "Hg12 mi
6:50 PM43 °FClear.3 mph46%30.01 "Hg16 mi
5:50 PM45 °FPassing clouds.9 mph46%30.01 "Hg16 mi
4:50 PM48 °FPassing clouds.10 mph37%29.98 "Hg19 mi
3:50 PM48 °FPassing clouds.13 mph37%30.01 "Hg19 mi
Weather by CustomWeather, © 2015

See weather overviewHow to use our weather pages